GW3137 Weather Reports


time (UTC)temp
F
wind
direction
speed
knots
gust
knots
rain 1hr
in
rain 24hr
in
rain mn
in
humidity
%
barometer
mb
20260831020704 70 331 1.7 6.1 0.00 0.00 0.00 55 1017.4
20260831020204 71 279 1.7 8.7 0.00 0.00 0.00 55 1017.4
20260831013703 72 19 0.9 2.6 0.00 0.00 0.00 52 1017.5
20260831013204 73 306 1.7 7.8 0.00 0.00 0.00 50 1017.5
20260831010704 74 284 1.7 2.6 0.00 0.00 0.00 49 1017.7
20260831010204 74 287 1.7 7.0 0.00 0.00 0.00 49 1017.7
20260831003704 74 227 0.9 5.2 0.00 0.00 0.00 48 1017.9
20260831003204 75 316 1.7 7.0 0.00 0.00 0.00 48 1017.9
20260831000704 73 352 1.7 5.2 0.00 0.00 0.00 50 1018.1
20260831000204 73 277 2.6 7.0 0.00 0.00 0.00 50 1018.2
20260830233704 74 26 1.7 4.3 0.00 0.00 0.00 52 1018.4
20260830233204 73 291 1.7 7.0 0.00 0.00 0.00 52 1018.3
20260830230704 74 22 2.6 7.8 0.00 0.00 0.00 51 1018.4
20260830230204 74 246 3.5 8.7 0.00 0.00 0.00 51 1018.4
20260830223704 73 287 4.3 8.7 0.00 0.00 0.00 53 1018.8
20260830223204 73 268 3.5 8.7 0.00 0.00 0.00 52 1018.8
20260830220704 74 167 2.6 5.2 0.00 0.00 0.00 52 1018.8
20260830220204 74 219 2.6 8.7 0.00 0.00 0.00 52 1018.9
20260830213203 72 264 2.6 6.1 0.00 0.00 0.00 56 1019.3
20260830210204 72 277 2.6 10.4 0.00 0.00 0.00 55 1019.5
20260830203704 70 75 1.7 4.3 0.00 0.00 0.00 58 1019.7
20260830203203 70 55 0.9 7.0 0.00 0.00 0.00 59 1019.7
20260830200703 68 97 2.6 5.2 0.00 0.00 0.00 62 1020.0
20260830200204 67 160 4.3 7.0 0.00 0.00 0.00 63 1020.0
20260830193704 66 171 1.7 2.6 0.00 0.00 0.00 65 1020.2
20260830193204 67 259 0.9 7.8 0.00 0.00 0.00 64 1020.1
20260830190704 67 236 3.5 7.8 0.00 0.00 0.00 64 1020.2
20260830183204 65 206 2.6 7.8 0.00 0.00 0.00 67 1020.2
20260830180703 63 166 2.6 5.2 0.00 0.00 0.00 70 1020.4
20260830173204 63 290 0.9 6.1 0.00 0.00 0.00 70 1020.4
20260830170704 62 169 0.9 2.6 0.00 0.00 0.00 71 1020.4
20260830163704 61 293 1.7 2.6 0.00 0.00 0.00 73 1020.4
20260830163204 61 158 3.5 6.1 0.00 0.00 0.00 72 1020.4
20260830160703 60 215 0.9 2.6 0.00 0.00 0.00 75 1020.5
20260830153704 60 198 1.7 5.2 0.00 0.02 0.00 76 1020.4
20260830153204 60 241 0.9 4.3 0.00 0.02 0.00 76 1020.4
20260830150204 59 123 0.9 2.6 0.00 0.03 0.00 78 1020.4
20260830143704 58 107 0.9 1.7 0.00 0.09 0.00 80 1020.4
20260830143205 58 107 0.0 1.7 0.00 0.10 0.00 81 1020.3
20260830140704 57 107 0.0 2.6 0.00 0.30 0.00 82 1020.0
20260830140204 57 107 0.0 2.6 0.00 0.31 0.00 82 1019.9
20260830133704 57 111 0.9 2.6 0.00 0.36 0.00 83 1019.9
20260830133204 57 111 0.9 1.7 0.00 0.36 0.00 83 1019.9
20260830130704 57 99 0.9 2.6 0.00 0.36 0.00 83 1019.9
20260830130203 57 99 0.9 2.6 0.00 0.36 0.00 83 1019.8
20260830123704 57 139 0.0 0.9 0.00 0.36 0.00 82 1019.9
20260830123204 57 139 0.9 2.6 0.00 0.36 0.00 82 1019.9
20260830120703 58 139 0.0 0.9 0.00 0.36 0.00 82 1019.9
20260830120204 58 139 0.0 1.7 0.00 0.36 0.00 82 1019.9
20260830113204 58 139 0.9 1.7 0.00 0.36 0.00 82 1019.8
20260830110704 57 139 0.9 2.6 0.00 0.36 0.00 82 1019.8
20260830110204 57 139 0.9 2.6 0.00 0.36 0.00 82 1019.7
20260830103704 57 127 0.0 1.7 0.00 0.36 0.00 83 1019.8
20260830103204 57 134 1.7 2.6 0.00 0.36 0.00 82 1019.8
20260830100704 57 113 0.0 0.0 0.00 0.36 0.00 83 1019.7
20260830100203 57 132 0.9 2.6 0.00 0.36 0.00 83 1019.6
20260830093704 57 126 0.9 2.6 0.00 0.36 0.00 82 1019.6
20260830093204 57 80 0.0 2.6 0.00 0.36 0.00 82 1019.6
20260830090704 58 115 0.9 1.7 0.00 0.36 0.00 81 1019.7
20260830090204 58 116 0.9 2.6 0.00 0.36 0.00 81 1019.7
20260830083704 57 97 0.9 2.6 0.00 0.36 0.00 81 1019.6
20260830083204 57 90 0.9 2.6 0.00 0.36 0.00 80 1019.5
20260830080704 58 147 0.9 2.6 0.00 0.36 0.00 79 1019.4
20260830080204 58 125 1.7 2.6 0.00 0.36 0.00 79 1019.4
20260830073704 59 128 0.9 2.6 0.00 0.36 0.00 78 1019.4
20260830073204 59 122 1.7 5.2 0.00 0.36 0.00 77 1019.4
20260830070204 60 173 0.0 4.3 0.00 0.36 0.00 76 1019.2
20260830063704 60 178 1.7 2.6 0.00 0.36 0.36 75 1019.1
20260830063204 60 189 0.9 7.8 0.00 0.36 0.36 75 1019.1
20260830060704 61 196 1.7 6.1 0.00 0.36 0.36 74 1018.9
20260830060204 61 234 1.7 7.8 0.00 0.36 0.36 73 1019.0
20260830053204 62 206 1.7 7.8 0.00 0.36 0.36 71 1019.0
20260830050703 63 197 2.6 12.2 0.00 0.36 0.36 69 1018.8
20260830050204 63 196 1.7 10.4 0.00 0.36 0.36 68 1018.8
20260830043704 63 195 2.6 7.8 0.00 0.36 0.36 66 1018.7
20260830043204 64 171 4.3 10.4 0.00 0.36 0.36 66 1018.7
20260830040704 64 224 2.6 7.8 0.00 0.36 0.36 64 1018.4
20260830040204 64 243 2.6 7.0 0.00 0.36 0.36 64 1018.3
20260830033704 65 227 2.6 6.1 0.00 0.36 0.36 62 1017.9
20260830033204 65 174 1.7 8.7 0.00 0.36 0.36 62 1017.9
20260830030704 66 210 1.7 6.1 0.00 0.36 0.36 60 1017.6
20260830030204 66 207 2.6 8.7 0.00 0.36 0.36 60 1017.5
20260830023703 67 220 2.6 8.7 0.00 0.36 0.36 58 1017.5
20260830023203 67 218 2.6 7.8 0.00 0.36 0.36 58 1017.5